Location: Mentone
(34.5413°N, 85.5351°W)
Time: 18:14:27
(UTC-05:00)

A-11 Canister half - Visible Passes

Search period start: 28 August 2014 00:00
Search period end: 07 September 2014 00:00
Orbit: 1526 x 1684 km, 47.3° (Epoch: 24 August)

Date Brightness Start Highest point End Pass type
(mag) Time Alt. Az. Time Alt. Az. Time Alt. Az.
28 Aug 9.6 01:37:53 48° ENE 01:37:53 48° ENE 01:44:39 10° ENE visible
28 Aug 9.6 03:36:11 33° WNW 03:40:23 50° NNW 03:50:09 10° NE visible
28 Aug 10.2 05:38:19 10° WNW 05:47:37 40° N 05:57:01 10° ENE visible
29 Aug 9.9 01:17:21 39° ENE 01:17:21 39° ENE 01:23:04 10° ENE visible
29 Aug 9.6 03:15:39 40° WNW 03:18:46 51° NNW 03:28:33 10° NE visible
29 Aug 10.2 05:16:41 10° WNW 05:25:58 40° N 05:35:21 10° ENE visible
30 Aug 10.2 00:56:49 32° ENE 00:56:49 32° ENE 01:01:28 10° ENE visible
30 Aug 9.5 02:55:06 46° NW 02:57:09 52° NNW 03:06:57 10° NE visible
30 Aug 10.1 04:55:04 10° WNW 05:04:18 40° N 05:13:41 10° ENE visible
31 Aug 10.4 00:36:15 26° ENE 00:36:15 26° ENE 00:39:53 10° ENE visible
31 Aug 9.4 02:34:33 52° NW 02:35:32 54° NNW 02:45:22 10° NE visible
31 Aug 10.1 04:33:27 10° WNW 04:42:39 40° N 04:52:00 10° ENE visible
01 Sep 10.6 00:15:41 21° ENE 00:15:41 21° ENE 00:18:17 10° ENE visible
01 Sep 9.4 02:13:59 55° NNW 02:13:59 55° NNW 02:23:47 10° NE visible
01 Sep 10.1 04:12:16 12° WNW 04:21:00 39° N 04:30:20 10° ENE visible
01 Sep 10.8 23:55:07 16° ENE 23:55:07 16° ENE 23:56:41 10° ENE visible
02 Sep 9.5 01:53:24 55° N 01:53:24 55° N 02:02:11 10° NE visible
02 Sep 10.1 03:51:41 15° WNW 03:59:20 39° N 04:08:40 10° ENE visible
02 Sep 11.0 23:34:32 12° ENE 23:34:32 12° ENE 23:35:05 10° ENE visible
03 Sep 9.6 01:32:49 51° NNE 01:32:49 51° NNE 01:40:36 10° NE visible
03 Sep 10.1 03:31:07 19° WNW 03:37:41 39° N 03:47:00 10° ENE visible
03 Sep 9.8 05:34:56 10° NW 05:44:47 55° NNE 05:54:42 10° E visible
04 Sep 9.8 01:12:15 45° NNE 01:12:15 45° NNE 01:19:01 10° NE visible
04 Sep 10.0 03:10:32 23° NW 03:16:02 39° N 03:25:21 10° ENE visible
04 Sep 9.8 05:13:22 10° NW 05:23:10 53° NNE 05:33:02 10° E visible
05 Sep 10.0 00:51:41 38° NE 00:51:41 38° NE 00:57:27 10° NE visible
05 Sep 10.0 02:49:58 28° NW 02:54:23 39° N 03:03:41 10° ENE visible
05 Sep 9.8 04:51:49 10° NW 05:01:32 52° NNE 05:11:23 10° E visible
06 Sep 10.2 00:31:08 32° NE 00:31:08 32° NE 00:35:52 10° NE visible
06 Sep 10.0 02:29:25 32° NW 02:32:44 40° N 02:42:02 10° ENE visible
06 Sep 9.8 04:30:15 10° NW 04:39:55 51° NNE 04:49:43 10° E visible
